Location: Alamogordo
(32.8990°N, 105.9600°W)
Time: 09:16:25
(UTC-06:00)

X-37B - Visible Passes

Search period start: 29 September 2022 00:00
Search period end: 09 October 2022 00:00
Orbit: 330 x 340 km, 45.0° (Epoch: 02 September)

Date Brightness Start Highest point End Pass type
(mag) Time Alt. Az. Time Alt. Az. Time Alt. Az.
03 Oct 3.1 05:46:01 10° NNW 05:47:35 14° NNE 05:49:08 10° NE visible
04 Oct 2.2 06:05:49 10° NW 06:08:19 26° NNE 06:10:48 10° E visible
05 Oct 3.8 04:54:20 11° NE 04:54:20 11° NE 04:54:33 10° NE visible
05 Oct 0.4 06:25:59 10° NW 06:28:51 80° NNE 06:31:41 10° ESE visible
06 Oct 2.6 05:14:21 24° NE 05:14:21 24° NE 05:16:13 10° E visible
07 Oct 0.5 05:34:30 70° E 05:34:30 70° E 05:37:07 10° ESE visible
08 Oct 1.5 05:54:47 27° SSW 05:54:47 27° SSW 05:57:06 10° SSE visible
